Mumbai, India

10:44 AM IST on June 26, 2017 (GMT +0530)
Chhatrapati Shivaji International

Weather History for VABB - March, 2013

Change the Weather History Date:

Saturday, March 23, 2013

  Actual Average Record
Temperature  
Mean Temperature 79 °F -  
Max Temperature 88 °F 89 °F 100 °F (2016)
Min Temperature 70 °F 74 °F 68 °F (2014)
Cooling Degree Days 14    
Growing Degree Days 29 (Base 50)    
Moisture  
Dew Point 69 °F    
Average Humidity 67    
Maximum Humidity 89    
Minimum Humidity 39    
Precipitation  
Precipitation 0.00 in - - ()
Sea Level Pressure  
Sea Level Pressure 29.79 in    
Wind  
Wind Speed 4 mph ()    
Max Wind Speed 15 mph    
Max Gust Speed 23 mph    
Visibility 2.4 miles    
Events      
Averages and records for this station are not official NWS values.
T = Trace of Precipitation, MM = Missing Value Source: Averaged Metar Reports

Daily Weather History Graph

Daily Weather History Graph

Search for Another Location

Airport or City:

Trip Planner

Search our weather history database for the weather conditions in past years. The results will help you decide how hot, cold, wet, or windy it might be!

Date:

Astronomy

Mar. 23, 2013 Rise Set
Actual Time 6:40 AM IST 6:50 PM IST
Civil Twilight 6:18 AM IST 7:12 PM IST
Nautical Twilight 5:52 AM IST 7:37 PM IST
Astronomical Twilight 5:27 AM IST 8:03 PM IST
Moon 3:17 PM IST (3/23) 3:30 AM IST (3/23)
Length of Visible Light 12h 53m
Length of Day
12h 10m
Waxing Gibbous, 82% of the Moon is Illuminated
Mar 23
Waxing Gibbous
Mar 27
Full
Apr 3
Last Quarter
Apr 10
New
Apr 18
First Quarter

Hourly Weather History & Observations

Time (IST) Temp. Heat Index Dew Point Humidity Pressure Visibility Wind Dir Wind Speed Gust Speed Precip Events Conditions
12:10 AM 78.8 °F - 73.4 °F 83% 29.77 in 2.5 mi NW 3.5 mph - N/A   Haze
12:40 AM 78.8 °F - 73.4 °F 83% 29.77 in 2.5 mi NW 3.5 mph - N/A   Haze
1:10 AM 78.8 °F - 73.4 °F 83% 29.77 in 2.5 mi Calm Calm - N/A   Haze
1:40 AM 78.8 °F - 73.4 °F 83% 29.77 in 2.5 mi West 5.8 mph - N/A   Haze
2:10 AM 78.8 °F - 71.6 °F 78% 29.77 in 2.5 mi Calm Calm - N/A   Haze
2:30 AM 76 °F - 72 °F 86% 29.76 in 1 mi Calm Calm - -   Haze
2:40 AM 78.8 °F - 73.4 °F 83% 29.74 in 2.5 mi WNW 3.5 mph - N/A   Haze
3:10 AM 78.8 °F - 73.4 °F 83% 29.74 in 2.5 mi Calm Calm - N/A   Haze
3:40 AM 78.8 °F - 73.4 °F 83% 29.74 in 2.5 mi NE 3.5 mph - N/A   Haze
4:10 AM 77.0 °F - 73.4 °F 89% 29.74 in 2.5 mi Calm Calm - N/A   Haze
4:40 AM 77.0 °F - 71.6 °F 83% 29.74 in 2.5 mi Calm Calm - N/A   Scattered Clouds
5:10 AM 77.0 °F - 73.4 °F 89% 29.74 in 2.5 mi Calm Calm - N/A   Scattered Clouds
5:30 AM 73 °F - 70 °F 87% 29.76 in 0 mi Calm Calm - -   Haze
5:40 AM 77.0 °F - 73.4 °F 89% 29.77 in 2.2 mi ENE 3.5 mph - N/A   Partly Cloudy
6:10 AM 77.0 °F - 71.6 °F 83% 29.77 in 2.2 mi East 3.5 mph - N/A   Scattered Clouds
6:40 AM 77.0 °F - 71.6 °F 83% 29.77 in - ESE 5.8 mph - N/A   Scattered Clouds
7:40 AM 77.0 °F - 73.4 °F 89% 29.80 in 1.6 mi ESE 4.6 mph - N/A   Partly Cloudy
8:10 AM 78.8 °F - 73.4 °F 83% 29.83 in 1.6 mi East 3.5 mph - N/A   Partly Cloudy
8:30 AM 78 °F - 72 °F 77% 29.83 in 1 mi Calm Calm - -   Haze
8:40 AM 78.8 °F - 71.6 °F 78% 29.83 in 1.6 mi Calm Calm - N/A   Haze
9:10 AM 80.6 °F 83.9 °F 69.8 °F 70% 29.83 in 1.6 mi NNW 3.5 mph - N/A   Haze
10:10 AM 84.2 °F 85.6 °F 64.4 °F 51% 29.86 in 1.9 mi NNW 4.6 mph - N/A   Smoke
10:40 AM 84.2 °F 87.3 °F 68.0 °F 58% 29.83 in 1.9 mi West 9.2 mph - N/A   Smoke
11:10 AM 86.0 °F 90.4 °F 69.8 °F 58% 29.83 in 2.2 mi West 10.4 mph - N/A   Smoke
11:30 AM 87 °F - 71 °F 49% 29.83 in 1 mi West 9.2 mph - -   Smoke
11:40 AM 84.2 °F 88.4 °F 69.8 °F 62% 29.83 in 2.5 mi West 13.8 mph - N/A   Smoke
12:10 PM 84.2 °F 89.6 °F 71.6 °F 66% 29.80 in 2.5 mi West 15.0 mph - N/A   Smoke
12:40 PM 84.2 °F 89.6 °F 71.6 °F 66% 29.80 in 2.5 mi West 11.5 mph - N/A   Smoke
1:40 PM 86.0 °F 90.4 °F 69.8 °F 58% 29.77 in 3.1 mi West 8.1 mph 19.6 mph N/A   Smoke
2:10 PM 86.0 °F 90.4 °F 69.8 °F 58% 29.74 in 3.7 mi West 9.2 mph 20.7 mph N/A   Unknown
2:30 PM 88 °F - 71 °F 47% 29.75 in 2 mi NW 6.9 mph - -   Scattered Clouds
2:40 PM 86.0 °F 90.4 °F 69.8 °F 58% 29.74 in 3.7 mi West 10.4 mph 21.9 mph N/A   Unknown
3:10 PM 86.0 °F 89.4 °F 68.0 °F 55% 29.74 in 3.7 mi West 9.2 mph 20.7 mph N/A   Unknown
3:40 PM 86.0 °F 90.4 °F 69.8 °F 58% 29.71 in 3.7 mi West 9.2 mph 20.7 mph N/A   Unknown
4:10 PM 86.0 °F 89.4 °F 68.0 °F 55% 29.71 in 3.7 mi WNW 8.1 mph 19.6 mph N/A   Unknown
4:40 PM 86.0 °F 88.2 °F 66.2 °F 51% 29.74 in 3.7 mi WNW 11.5 mph 23.0 mph N/A   Unknown
5:10 PM 86.0 °F 87.3 °F 64.4 °F 48% 29.74 in 3.7 mi WNW 12.7 mph - N/A   Unknown
5:30 PM 86 °F - 65 °F 39% 29.75 in 2 mi NW 9.2 mph - -   Partly Cloudy
6:10 PM 84.2 °F 85.6 °F 64.4 °F 51% 29.77 in 3.1 mi WNW 8.1 mph 19.6 mph N/A   Smoke
6:40 PM 82.4 °F 83.9 °F 64.4 °F 54% 29.77 in 2.8 mi WNW 13.8 mph - N/A   Smoke
7:10 PM 82.4 °F 83.9 °F 64.4 °F 54% 29.80 in 2.5 mi WNW 9.2 mph - N/A   Smoke
7:40 PM 82.4 °F 83.9 °F 64.4 °F 54% 29.80 in 2.5 mi WNW 10.4 mph - N/A   Smoke
8:10 PM 80.6 °F 82.3 °F 64.4 °F 58% 29.83 in 2.5 mi WNW 10.4 mph - N/A   Smoke
8:30 PM 81 °F - 65 °F 50% 29.82 in 1 mi NW 4.6 mph - -   Smoke
8:40 PM 80.6 °F 82.7 °F 66.2 °F 61% 29.83 in 2.5 mi WNW 6.9 mph - N/A   Smoke
9:10 PM 80.6 °F 82.7 °F 66.2 °F 61% 29.83 in 2.5 mi WNW 6.9 mph - N/A   Smoke
9:40 PM 80.6 °F 82.7 °F 66.2 °F 61% 29.86 in 2.5 mi WNW 5.8 mph - N/A   Smoke
10:10 PM 80.6 °F 82.7 °F 66.2 °F 61% 29.86 in 2.5 mi WNW 4.6 mph - N/A   Smoke
10:40 PM 80.6 °F 82.7 °F 66.2 °F 61% 29.86 in 2.5 mi NW 4.6 mph - N/A   Smoke
11:10 PM 80.6 °F 82.7 °F 66.2 °F 61% 29.86 in 2.5 mi WNW 3.5 mph - N/A   Smoke
11:30 PM 76 °F - 67 °F 67% 29.87 in 1 mi Calm Calm - -   Haze
11:40 PM 80.6 °F 82.7 °F 66.2 °F 61% 29.86 in 2.5 mi WNW 3.5 mph - N/A   Smoke